Date String (YYYY-MM-DD hh:mm:ss) UTC,Instrument flags,absolute air pressure of the measurement (hPa),sample flow rate (lpm),inlet stack bypass flow (lpm),air temperature of the measurement (°C),ambient temperature measured by the external sensor (°C),aerosol sample conditioner tube jacket temperature (°C),OPC LED temperature (°C),internal box temperature (°C),relative humidity of the measurement (%),span deviation,mass concentration of particles derived from Lorenz-Mie calculation of OPC scattering (μg/m³),mass concentration of particles derived from Lorenz-Mie calculation of OPC scattering (μg/m³),mass concentration of particles derived from Lorenz-Mie calculation of OPC scattering (μg/m³)
DateTimeUTC,F1_M11,P_M11,Q1_M11,Q2_M11,T1_M11,T2_M11,T3_M11,T4_M11,T5_M11,U1_M11,ZSPAN_M11,X2_M11,X0_M11,X1_M11
2024-04-30 13:00:00,SystemResetWarning,0823.7,5.00,000.00,024.0,023.2,000.0,032.7,025.8,022.8,0000.0,0003.44,0008.71,0002.17
2024-04-30 13:01:00,SystemResetWarning,0823.7,5.00,000.00,024.0,023.1,000.0,032.7,025.7,022.7,0000.0,0003.44,0008.94,0002.13
2024-04-30 13:02:00,SystemResetWarning,0823.7,4.99,000.00,024.0,023.1,000.0,032.7,025.7,022.7,0000.0,0003.43,0009.14,0002.11
2024-04-30 13:03:00,SystemResetWarning,0823.7,5.00,000.00,024.0,023.1,000.0,032.7,025.7,022.7,0000.0,0003.41,0009.06,0002.08
2024-04-30 13:04:00,SystemResetWarning,0823.7,5.02,000.00,024.0,023.1,000.0,032.6,025.7,022.8,0000.0,0003.40,0009.13,0002.07
2024-04-30 13:05:00,SystemResetWarning,0823.7,5.00,000.00,023.9,023.1,000.0,032.6,025.7,022.9,0000.0,0003.36,0009.11,0002.06
2024-04-30 13:06:00,SystemResetWarning,0823.6,4.99,000.00,023.9,023.0,000.0,032.6,025.7,023.2,0000.0,0003.33,0009.22,0002.04
2024-04-30 13:07:00,SystemResetWarning,0823.6,5.00,000.00,023.9,023.0,000.0,032.6,025.7,023.4,0000.0,0003.30,0009.18,0002.01
2024-04-30 13:08:00,SystemResetWarning,0823.6,5.00,000.00,023.9,023.0,000.0,032.6,025.7,023.1,0000.0,0003.33,0009.32,0001.99
2024-04-30 13:09:00,SystemResetWarning,0823.7,5.01,000.00,023.9,023.0,000.0,032.6,025.6,023.0,0000.0,0003.28,0008.60,0001.94
2024-04-30 13:10:00,SystemResetWarning,0823.7,5.01,000.00,023.9,023.0,000.0,032.6,025.6,023.1,0000.0,0003.27,0008.26,0001.91
2024-04-30 13:11:00,SystemResetWarning,0823.7,5.01,000.00,023.9,023.0,000.0,032.5,025.6,023.1,0000.0,0003.20,0008.12,0001.87
2024-04-30 13:12:00,SystemResetWarning,0823.7,5.00,000.00,023.9,023.0,000.0,032.5,025.7,023.0,0000.0,0003.18,0008.57,0001.83
2024-04-30 13:13:00,SystemResetWarning,0823.7,5.00,000.00,023.9,023.0,000.0,032.5,025.6,023.2,0000.0,0003.17,0008.38,0001.80
2024-04-30 13:14:00,SystemResetWarning,0823.7,4.99,000.00,023.8,023.0,000.0,032.5,025.6,023.5,0000.0,0003.15,0008.10,0001.78
2024-04-30 13:15:00,SystemResetWarning,0823.6,5.00,000.00,023.8,023.0,000.0,032.5,025.6,023.4,0000.0,0003.13,0008.53,0001.75
2024-04-30 13:16:00,SystemResetWarning,0823.6,5.00,000.00,023.8,023.0,000.0,032.5,025.6,023.5,0000.0,0003.11,0008.45,0001.71
2024-04-30 13:17:00,SystemResetWarning,0823.6,5.00,000.00,023.8,023.0,000.0,032.5,025.6,023.4,0000.0,0003.09,0008.32,0001.67
2024-04-30 13:18:00,SystemResetWarning,0823.7,5.00,000.00,023.8,023.0,000.0,032.5,025.6,023.3,0000.0,0003.03,0008.89,0001.65
2024-04-30 13:19:00,SystemResetWarning,0823.7,5.00,000.00,023.8,023.0,000.0,032.5,025.7,023.1,0000.0,0003.00,0009.71,0001.61
2024-04-30 13:20:00,SystemResetWarning,0823.8,5.00,000.00,023.8,023.0,000.0,032.5,025.6,023.2,0000.0,0003.06,0009.80,0001.60
2024-04-30 13:21:00,SystemResetWarning,0823.8,5.00,000.00,023.8,023.0,000.0,032.5,025.7,023.2,0000.0,0002.99,0009.76,0001.59
2024-04-30 13:22:00,SystemResetWarning,0823.9,5.00,000.00,023.8,023.0,000.0,032.5,025.7,023.3,0000.0,0002.96,0009.76,0001.58
2024-04-30 13:23:00,SystemResetWarning,0823.9,5.00,000.00,023.8,023.0,000.0,032.5,025.6,023.2,0000.0,0003.02,0009.58,0001.59
2024-04-30 13:24:00,SystemResetWarning,0824.0,5.01,000.00,023.8,023.0,000.0,032.4,025.7,023.3,0000.0,0003.08,0011.00,0001.61
2024-04-30 13:25:00,SystemResetWarning,0824.0,5.00,000.00,023.8,023.0,000.0,032.4,025.6,023.3,0000.0,0003.08,0010.96,0001.62
2024-04-30 13:26:00,SystemResetWarning,0823.9,5.00,000.00,023.8,023.0,000.0,032.4,025.7,023.3,0000.0,0003.12,0010.72,0001.64
2024-04-30 13:27:00,SystemResetWarning,0824.0,5.00,000.00,023.8,023.0,000.0,032.4,025.6,023.3,0000.0,0003.13,0011.09,0001.64
2024-04-30 13:28:00,SystemResetWarning,0824.0,5.00,000.00,023.8,023.0,000.0,032.4,025.7,023.3,0000.0,0003.14,0011.07,0001.65
2024-04-30 13:29:00,SystemResetWarning,0824.0,5.00,000.00,023.9,023.1,000.0,032.4,025.7,023.6,0000.0,0003.17,0010.71,0001.66
2024-04-30 13:30:00,SystemResetWarning,0824.0,5.00,000.00,023.9,023.1,000.0,032.4,025.7,023.3,0000.0,0003.14,0009.40,0001.66
2024-04-30 13:31:00,SystemResetWarning,0824.0,5.00,000.00,023.9,023.1,000.0,032.4,025.7,023.6,0000.0,0003.13,0009.28,0001.66
2024-04-30 13:32:00,SystemResetWarning,0824.1,5.00,000.00,023.9,023.1,000.0,032.4,025.7,023.4,0000.0,0003.14,0009.45,0001.66
2024-04-30 13:33:00,SystemResetWarning,0824.2,5.00,000.00,023.9,023.1,000.0,032.4,025.7,023.8,0000.0,0003.17,0009.55,0001.66
2024-04-30 13:34:00,SystemResetWarning,0824.2,4.99,000.00,023.9,023.1,000.0,032.4,025.7,023.4,0000.0,0003.09,0009.58,0001.64
2024-04-30 13:35:00,SystemResetWarning,0824.0,5.00,000.00,023.9,023.2,000.0,032.4,025.7,023.3,0000.0,0002.93,0007.95,0001.60
2024-04-30 13:36:00,SystemResetWarning,0824.0,5.00,000.00,023.9,023.2,000.0,032.4,025.7,022.9,0000.0,0002.81,0007.81,0001.54
2024-04-30 13:37:00,SystemResetWarning,0824.1,5.00,000.00,023.9,023.2,000.0,032.4,025.7,022.0,0000.0,0002.66,0007.51,0001.44
2024-04-30 13:38:00,SystemResetWarning,0824.1,5.00,000.00,023.9,023.2,000.0,032.4,025.7,023.6,0000.0,0002.47,0006.44,0001.33
2024-04-30 13:39:00,SystemResetWarning,0824.1,5.00,000.00,023.9,023.2,000.0,032.4,025.7,023.7,0000.0,0002.42,0006.35,0001.29
2024-04-30 13:40:00,SystemResetWarning,0824.2,5.00,000.00,023.9,023.2,000.0,032.4,025.7,023.1,0000.0,0002.31,0006.22,0001.24
2024-04-30 13:41:00,SystemResetWarning,0824.1,5.01,000.00,023.9,023.2,000.0,032.4,025.7,023.1,0000.0,0002.28,0006.33,0001.19
2024-04-30 13:42:00,SystemResetWarning,0824.1,5.00,000.00,023.9,023.2,000.0,032.4,025.7,022.8,0000.0,0002.08,0005.39,0001.13
2024-04-30 13:43:00,SystemResetWarning,0824.1,5.01,000.00,023.9,023.2,000.0,032.4,025.7,022.6,0000.0,0001.96,0005.23,0001.07
2024-04-30 13:44:00,SystemResetWarning,0824.2,5.00,000.00,023.9,023.2,000.0,032.4,025.7,022.5,0000.0,0001.77,0005.71,0000.97
2024-04-30 13:45:00,SystemResetWarning,0824.3,5.00,000.00,023.9,023.2,000.0,032.4,025.7,022.3,0000.0,0001.60,0004.97,0000.87
2024-04-30 13:46:00,SystemResetWarning,0824.4,5.00,000.00,023.9,023.2,000.0,032.4,025.7,021.9,0000.0,0001.44,0004.29,0000.76
2024-04-30 13:47:00,SystemResetWarning,0824.4,4.99,000.00,023.9,023.2,000.0,032.4,025.7,021.8,0000.0,0001.32,0004.04,0000.67
2024-04-30 13:48:00,SystemResetWarning,0824.3,5.00,000.00,023.9,023.1,000.0,032.4,025.7,021.9,0000.0,0001.20,0003.85,0000.61
2024-04-30 13:49:00,SystemResetWarning,0824.0,5.00,000.00,023.9,023.1,000.0,032.4,025.7,021.9,0000.0,0001.08,0003.60,0000.57
2024-04-30 13:50:00,SystemResetWarning,0824.1,5.00,000.00,023.9,023.1,000.0,032.4,025.7,022.0,0000.0,0000.90,0003.31,0000.47
2024-04-30 13:51:00,SystemResetWarning,0824.4,5.00,000.00,023.9,023.1,000.0,032.4,025.7,022.0,0000.0,0000.76,0002.89,0000.40
2024-04-30 13:52:00,SystemResetWarning,0824.4,5.01,000.00,023.9,023.1,000.0,032.4,025.6,022.4,0000.0,0000.55,0002.39,0000.30
2024-04-30 13:53:00,SystemResetWarning,0824.4,5.01,000.00,023.9,023.1,000.0,032.4,025.6,022.2,0000.0,0000.43,0002.17,0000.22
2024-04-30 13:54:00,SystemResetWarning,0824.3,5.00,000.00,023.9,023.1,000.0,032.4,025.6,022.8,0000.0,0000.34,0001.74,0000.16
2024-04-30 13:55:00,SystemResetWarning,0824.2,4.99,000.00,023.9,023.1,000.0,032.4,025.6,022.8,0000.0,0000.24,0000.47,0000.12
2024-04-30 13:56:00,SystemResetWarning,0824.1,5.00,000.00,023.9,023.1,000.0,032.4,025.6,022.9,0000.0,0000.20,0000.36,0000.11
2024-04-30 13:57:00,SystemResetWarning,0823.9,4.99,000.00,023.9,023.1,000.0,032.4,025.6,023.2,0000.0,0000.19,0000.31,0000.10
2024-04-30 13:58:00,SystemResetWarning,0823.9,4.99,000.00,023.9,023.0,000.0,032.4,025.6,023.4,0000.0,0000.20,0000.35,0000.10
2024-04-30 13:59:00,SystemResetWarning,0823.9,5.01,000.00,023.9,023.0,000.0,032.4,025.6,023.6,0000.0,0000.20,0000.37,0000.11
